Location: Poprad
(49.0500°N, 20.3000°E)
Time: 20:51:09
(UTC+02:00)

ISS - Pass Details

Date: 28 March 2019
Orbit: 408 x 410 km, 51.6° (Epoch: 25 April)

Event Time Altitude Azimuth Distance (km) Brightness Sun altitude
Rises 19:19:06 0° 268° (W) 2,334 1.4 -12.9°
Reaches altitude 10° 19:21:13 10° 273° (W) 1,473 0.3 -13.2°
Maximum altitude 19:24:28 55° 353° (N) 497 -3.3 -13.7°
Enters shadow 19:26:35 19° 66° (ENE) 1,031 -2.2 -14.1°
